Time,TemperatureF,DewpointF,PressureIn,WindDirection,WindDirectionDegrees,WindSpeedMPH,WindSpeedGustMPH,Humidity,HourlyPrecipIn,Conditions,Clouds,dailyrainin,SoftwareType,DateUTC
2013-10-09 00:01:00,51.0,48.8,29.99,East,85,0.0,0.0,92,0.00,,---,0.01,VWS V14.01,2013-10-09 05:01:00,
2013-10-09 00:06:00,50.9,48.7,29.99,East,85,0.0,0.0,92,0.00,,---,0.00,VWS V14.01,2013-10-09 05:06:00,
2013-10-09 00:11:00,50.9,48.7,29.99,East,85,0.0,0.0,92,0.00,,---,0.00,VWS V14.01,2013-10-09 05:11:00,
2013-10-09 00:16:00,51.0,48.8,29.99,East,85,0.0,0.0,92,0.00,,---,0.00,VWS V14.01,2013-10-09 05:16:00,
2013-10-09 00:21:00,50.9,48.7,29.99,East,85,0.0,0.0,92,0.00,,---,0.00,VWS V14.01,2013-10-09 05:21:00,
2013-10-09 00:26:00,50.8,48.6,29.99,East,85,0.0,0.0,92,0.00,,---,0.00,VWS V14.01,2013-10-09 05:26:00,
2013-10-09 00:31:00,50.6,48.4,29.99,East,85,0.0,0.0,92,0.00,,---,0.00,VWS V14.01,2013-10-09 05:31:00,
2013-10-09 00:36:00,50.6,48.7,29.99,East,85,0.0,0.0,93,0.00,,---,0.00,VWS V14.01,2013-10-09 05:36:00,
2013-10-09 00:41:00,50.5,48.6,29.99,East,85,0.0,0.0,93,0.00,,---,0.00,VWS V14.01,2013-10-09 05:41:00,
2013-10-09 00:46:00,50.6,48.7,29.99,East,85,0.0,0.0,93,0.00,,---,0.00,VWS V14.01,2013-10-09 05:46:00,
2013-10-09 00:51:00,50.6,48.7,29.99,East,85,0.0,0.0,93,0.00,,---,0.00,VWS V14.01,2013-10-09 05:51:00,
2013-10-09 00:56:00,50.5,48.6,29.99,East,85,0.0,0.0,93,0.00,,---,0.00,VWS V14.01,2013-10-09 05:56:00,
2013-10-09 01:01:00,50.4,48.5,29.99,East,85,0.0,0.0,93,0.00,,---,0.00,VWS V14.01,2013-10-09 06:01:00,
2013-10-09 01:06:00,50.4,48.5,29.99,East,85,0.0,0.0,93,0.00,,---,0.00,VWS V14.01,2013-10-09 06:06:00,
2013-10-09 01:11:00,50.3,48.4,29.99,East,85,0.0,0.0,93,0.00,,---,0.00,VWS V14.01,2013-10-09 06:11:00,
2013-10-09 01:16:00,50.1,48.2,29.99,East,85,0.0,0.0,93,0.00,,---,0.00,VWS V14.01,2013-10-09 06:16:00,
2013-10-09 01:21:00,50.0,48.1,29.99,East,85,0.0,0.0,93,0.00,,---,0.00,VWS V14.01,2013-10-09 06:21:00,
2013-10-09 01:26:00,49.9,48.0,29.99,East,85,0.0,0.0,93,0.00,,---,0.00,VWS V14.01,2013-10-09 06:26:00,
2013-10-09 01:31:00,49.8,47.9,29.99,East,85,0.0,0.0,93,0.00,,---,0.00,VWS V14.01,2013-10-09 06:31:00,
2013-10-09 01:36:00,49.7,47.8,29.99,East,85,0.0,0.0,93,0.00,,---,0.00,VWS V14.01,2013-10-09 06:36:00,
2013-10-09 01:41:00,49.7,47.8,29.99,East,85,0.0,0.0,93,0.00,,---,0.00,VWS V14.01,2013-10-09 06:41:00,
2013-10-09 01:46:00,49.6,47.7,29.99,East,85,0.0,0.0,93,0.00,,---,0.00,VWS V14.01,2013-10-09 06:46:00,
2013-10-09 01:51:00,49.6,48.0,29.99,East,85,0.0,0.0,94,0.00,,---,0.00,VWS V14.01,2013-10-09 06:51:00,
2013-10-09 01:56:00,49.6,48.0,29.99,East,85,0.0,0.0,94,0.00,,---,0.00,VWS V14.01,2013-10-09 06:56:00,
2013-10-09 02:01:00,49.5,47.6,29.99,East,85,0.0,0.0,93,0.00,,---,0.00,VWS V14.01,2013-10-09 07:01:00,
2013-10-09 02:06:00,49.5,47.8,29.99,East,85,0.0,0.0,94,0.00,,---,0.00,VWS V14.01,2013-10-09 07:06:00,
2013-10-09 02:11:00,49.5,47.8,29.99,East,85,0.0,0.0,94,0.00,,---,0.00,VWS V14.01,2013-10-09 07:11:00,
2013-10-09 02:16:00,49.4,47.8,29.98,East,85,0.0,0.0,94,0.00,,---,0.00,VWS V14.01,2013-10-09 07:16:00,
2013-10-09 02:21:00,49.3,47.7,29.98,East,85,0.0,0.0,94,0.00,,---,0.00,VWS V14.01,2013-10-09 07:21:00,
2013-10-09 02:26:00,49.2,47.5,29.98,East,85,0.0,0.0,94,0.00,,---,0.00,VWS V14.01,2013-10-09 07:26:00,
2013-10-09 02:31:00,49.2,47.5,29.98,East,85,0.0,0.0,94,0.00,,---,0.00,VWS V14.01,2013-10-09 07:31:00,
2013-10-09 02:36:00,49.1,47.5,29.98,East,85,0.0,0.0,94,0.00,,---,0.00,VWS V14.01,2013-10-09 07:36:00,
2013-10-09 02:41:00,49.1,47.5,29.98,East,85,0.0,0.0,94,0.00,,---,0.00,VWS V14.01,2013-10-09 07:41:00,
2013-10-09 02:46:00,49.1,47.5,29.97,East,85,0.0,0.0,94,0.00,,---,0.00,VWS V14.01,2013-10-09 07:46:00,
2013-10-09 02:51:00,48.9,47.2,29.97,East,85,0.0,0.0,94,0.00,,---,0.00,VWS V14.01,2013-10-09 07:51:00,
2013-10-09 02:56:00,48.8,47.2,29.97,East,85,0.0,0.0,94,0.00,,---,0.00,VWS V14.01,2013-10-09 07:56:00,
2013-10-09 03:01:00,48.7,47.0,29.97,East,85,0.0,0.0,94,0.00,,---,0.00,VWS V14.01,2013-10-09 08:01:00,
2013-10-09 03:06:00,48.8,47.2,29.97,East,85,0.0,0.0,94,0.00,,---,0.00,VWS V14.01,2013-10-09 08:06:00,
2013-10-09 03:11:00,48.8,47.2,29.97,East,85,0.0,0.0,94,0.00,,---,0.00,VWS V14.01,2013-10-09 08:11:00,
2013-10-09 03:16:00,48.8,47.2,29.97,East,85,0.0,0.0,94,0.00,,---,0.00,VWS V14.01,2013-10-09 08:16:00,
2013-10-09 03:21:00,48.9,47.2,29.97,East,85,0.0,0.0,94,0.00,,---,0.00,VWS V14.01,2013-10-09 08:21:00,
2013-10-09 03:26:00,49.0,47.3,29.97,East,85,0.0,0.0,94,0.00,,---,0.00,VWS V14.01,2013-10-09 08:26:00,
2013-10-09 03:31:00,49.0,47.3,29.98,East,85,0.0,0.0,94,0.00,,---,0.00,VWS V14.01,2013-10-09 08:31:00,
2013-10-09 03:36:00,49.2,47.5,29.98,East,85,0.0,0.0,94,0.00,,---,0.00,VWS V14.01,2013-10-09 08:36:00,
2013-10-09 03:41:00,49.2,47.5,29.98,East,85,0.0,0.0,94,0.00,,---,0.00,VWS V14.01,2013-10-09 08:41:00,
2013-10-09 03:46:00,49.2,47.5,29.97,East,85,0.0,0.0,94,0.00,,---,0.00,VWS V14.01,2013-10-09 08:46:00,
2013-10-09 03:51:00,49.2,47.5,29.97,East,85,0.0,0.0,94,0.00,,---,0.00,VWS V14.01,2013-10-09 08:51:00,
2013-10-09 03:56:00,49.1,47.5,29.97,East,85,0.0,0.0,94,0.00,,---,0.00,VWS V14.01,2013-10-09 08:56:00,
2013-10-09 04:01:00,49.0,47.3,29.98,East,85,0.0,0.0,94,0.00,,---,0.00,VWS V14.01,2013-10-09 09:01:00,
2013-10-09 04:06:00,49.0,47.6,29.98,East,85,0.0,0.0,95,0.00,,---,0.00,VWS V14.01,2013-10-09 09:06:00,
2013-10-09 04:11:00,49.0,47.6,29.98,East,85,0.0,0.0,95,0.00,,---,0.00,VWS V14.01,2013-10-09 09:11:00,
2013-10-09 04:16:00,48.9,47.5,29.98,East,85,0.0,0.0,95,0.00,,---,0.00,VWS V14.01,2013-10-09 09:16:00,
2013-10-09 04:21:00,48.8,47.4,29.98,East,85,0.0,0.0,95,0.00,,---,0.00,VWS V14.01,2013-10-09 09:21:00,
2013-10-09 04:26:00,48.9,47.5,29.98,East,85,0.0,0.0,95,0.00,,---,0.00,VWS V14.01,2013-10-09 09:26:00,
2013-10-09 04:31:00,48.8,47.4,29.98,East,85,0.0,0.0,95,0.00,,---,0.00,VWS V14.01,2013-10-09 09:31:00,
2013-10-09 04:36:00,48.9,47.5,29.98,East,85,0.0,0.0,95,0.00,,---,0.00,VWS V14.01,2013-10-09 09:36:00,
2013-10-09 04:41:00,48.8,47.4,29.98,East,85,0.0,0.0,95,0.00,,---,0.00,VWS V14.01,2013-10-09 09:41:00,
2013-10-09 04:46:00,48.7,47.3,29.99,East,85,0.0,0.0,95,0.00,,---,0.00,VWS V14.01,2013-10-09 09:46:00,
2013-10-09 04:51:00,48.7,47.3,29.99,East,85,0.0,0.0,95,0.00,,---,0.00,VWS V14.01,2013-10-09 09:51:00,
2013-10-09 04:56:00,48.8,47.4,29.99,East,85,0.0,0.0,95,0.00,,---,0.00,VWS V14.01,2013-10-09 09:56:00,
2013-10-09 05:01:00,48.8,47.4,29.99,East,85,0.0,0.0,95,0.00,,---,0.00,VWS V14.01,2013-10-09 10:01:00,
2013-10-09 05:06:00,48.8,47.4,29.99,East,85,0.0,0.0,95,0.00,,---,0.00,VWS V14.01,2013-10-09 10:06:00,
2013-10-09 05:11:00,48.8,47.4,29.99,East,85,0.0,0.0,95,0.00,,---,0.00,VWS V14.01,2013-10-09 10:11:00,
2013-10-09 05:16:00,49.0,47.6,29.99,East,85,0.0,0.0,95,0.00,,---,0.00,VWS V14.01,2013-10-09 10:16:00,
2013-10-09 05:21:00,49.0,47.6,29.99,East,85,0.0,0.0,95,0.00,,---,0.00,VWS V14.01,2013-10-09 10:21:00,
2013-10-09 05:26:00,49.1,47.7,29.99,East,85,0.0,0.0,95,0.00,,---,0.00,VWS V14.01,2013-10-09 10:26:00,
2013-10-09 05:31:00,49.2,47.8,29.99,East,85,0.0,0.0,95,0.00,,---,0.00,VWS V14.01,2013-10-09 10:31:00,
2013-10-09 05:36:00,49.2,47.8,29.99,East,85,0.0,0.0,95,0.00,,---,0.00,VWS V14.01,2013-10-09 10:36:00,
2013-10-09 05:41:00,49.2,47.8,29.99,East,85,0.0,0.0,95,0.00,,---,0.00,VWS V14.01,2013-10-09 10:41:00,
2013-10-09 05:46:00,49.4,48.0,29.99,East,85,0.0,0.0,95,0.00,,---,0.00,VWS V14.01,2013-10-09 10:46:00,
2013-10-09 05:51:00,49.4,48.0,29.99,East,85,0.0,0.0,95,0.00,,---,0.00,VWS V14.01,2013-10-09 10:51:00,
2013-10-09 05:56:00,49.3,47.9,29.99,East,85,0.0,0.0,95,0.00,,---,0.00,VWS V14.01,2013-10-09 10:56:00,
2013-10-09 06:01:00,49.2,47.8,29.99,East,86,0.0,0.0,95,0.00,,---,0.00,VWS V14.01,2013-10-09 11:01:00,
2013-10-09 06:06:00,49.2,47.8,29.99,East,86,0.0,0.0,95,0.00,,---,0.00,VWS V14.01,2013-10-09 11:06:00,
2013-10-09 06:11:00,49.2,47.8,29.99,East,85,0.0,0.0,95,0.00,,---,0.00,VWS V14.01,2013-10-09 11:11:00,
2013-10-09 06:16:00,49.1,47.7,30.00,East,85,0.0,0.0,95,0.00,,---,0.00,VWS V14.01,2013-10-09 11:16:00,
2013-10-09 06:21:00,49.1,47.7,30.00,East,86,0.0,0.0,95,0.00,,---,0.00,VWS V14.01,2013-10-09 11:21:00,
2013-10-09 06:26:00,49.1,47.7,30.00,East,86,0.0,0.0,95,0.00,,---,0.00,VWS V14.01,2013-10-09 11:26:00,
2013-10-09 06:31:00,49.2,47.8,30.00,East,85,0.0,0.0,95,0.00,,---,0.00,VWS V14.01,2013-10-09 11:31:00,
2013-10-09 06:36:00,49.2,47.8,30.00,East,85,0.0,0.0,95,0.00,,---,0.00,VWS V14.01,2013-10-09 11:36:00,
2013-10-09 06:41:00,49.2,47.8,30.00,East,84,0.0,0.0,95,0.00,,---,0.00,VWS V14.01,2013-10-09 11:41:00,
2013-10-09 06:46:00,49.2,47.8,30.00,East,85,0.0,0.0,95,0.00,,---,0.00,VWS V14.01,2013-10-09 11:46:00,
2013-10-09 06:51:00,49.2,47.8,30.00,East,85,0.0,0.0,95,0.00,,---,0.00,VWS V14.01,2013-10-09 11:51:00,
2013-10-09 06:56:00,49.2,47.8,30.00,East,86,0.0,0.0,95,0.00,,---,0.00,VWS V14.01,2013-10-09 11:56:00,
2013-10-09 07:01:00,49.2,47.8,30.01,East,86,0.0,0.0,95,0.00,,---,0.00,VWS V14.01,2013-10-09 12:01:00,
2013-10-09 07:03:00,49.2,47.8,30.01,East,85,0.0,0.0,95,0.00,,---,0.00,VWS V14.01,2013-10-09 12:03:00,
2013-10-09 07:08:00,49.2,47.8,30.01,East,84,0.0,0.0,95,0.00,,---,0.00,VWS V14.01,2013-10-09 12:08:00,
2013-10-09 07:13:00,49.1,47.7,30.01,East,85,0.0,0.0,95,0.00,,---,0.00,VWS V14.01,2013-10-09 12:13:00,
2013-10-09 07:18:00,49.1,47.7,30.02,East,86,0.0,0.0,95,0.00,,---,0.00,VWS V14.01,2013-10-09 12:18:00,
2013-10-09 07:23:00,49.2,47.8,30.02,East,85,0.0,0.0,95,0.00,,---,0.00,VWS V14.01,2013-10-09 12:23:00,
2013-10-09 07:28:00,49.6,48.2,30.02,East,86,0.0,0.0,95,0.00,,---,0.00,VWS V14.01,2013-10-09 12:28:00,
2013-10-09 07:33:00,49.9,48.8,30.02,East,85,0.0,0.0,96,0.00,,---,0.00,VWS V14.01,2013-10-09 12:33:00,
2013-10-09 07:38:00,50.2,48.8,30.02,East,86,0.0,0.0,95,0.00,,---,0.00,VWS V14.01,2013-10-09 12:38:00,
2013-10-09 07:43:00,50.8,49.7,30.02,East,86,0.0,0.0,96,0.00,,---,0.00,VWS V14.01,2013-10-09 12:43:00,
2013-10-09 07:48:00,51.5,50.4,30.02,East,86,0.0,0.0,96,0.00,,---,0.00,VWS V14.01,2013-10-09 12:48:00,
2013-10-09 07:53:00,52.1,51.0,30.02,East,86,0.0,0.0,96,0.00,,---,0.00,VWS V14.01,2013-10-09 12:53:00,
2013-10-09 07:58:00,52.4,51.3,30.02,East,85,0.0,0.0,96,0.00,,---,0.00,VWS V14.01,2013-10-09 12:58:00,
2013-10-09 08:03:00,52.7,51.6,30.03,East,84,0.0,1.0,96,0.00,,---,0.00,VWS V14.01,2013-10-09 13:03:00,
2013-10-09 08:08:00,53.0,51.9,30.03,East,86,0.0,1.0,96,0.00,,---,0.00,VWS V14.01,2013-10-09 13:08:00,
2013-10-09 08:13:00,53.4,52.3,30.03,East,84,0.0,1.0,96,0.01,,---,0.01,VWS V14.01,2013-10-09 13:13:00,
2013-10-09 08:18:00,54.0,52.9,30.03,East,85,0.0,1.0,96,0.01,,---,0.01,VWS V14.01,2013-10-09 13:18:00,
2013-10-09 08:23:00,54.9,53.8,30.03,East,86,0.0,1.0,96,0.01,,---,0.01,VWS V14.01,2013-10-09 13:23:00,
2013-10-09 08:28:00,55.6,54.5,30.03,East,86,0.0,1.0,96,0.01,,---,0.01,VWS V14.01,2013-10-09 13:28:00,
2013-10-09 08:33:00,56.2,55.1,30.03,East,82,0.0,0.0,96,0.01,,---,0.01,VWS V14.01,2013-10-09 13:33:00,
2013-10-09 08:38:00,56.9,55.8,30.03,SSE,164,2.0,2.0,96,0.01,,---,0.01,VWS V14.01,2013-10-09 13:38:00,
2013-10-09 08:43:00,57.4,56.3,30.03,South,170,0.0,3.0,96,0.01,,---,0.01,VWS V14.01,2013-10-09 13:43:00,
2013-10-09 08:48:00,58.1,57.0,30.04,ESE,110,0.0,3.0,96,0.01,,---,0.01,VWS V14.01,2013-10-09 13:48:00,
2013-10-09 08:53:00,59.0,57.6,30.04,SSE,161,0.0,3.0,95,0.01,,---,0.01,VWS V14.01,2013-10-09 13:53:00,
2013-10-09 08:58:00,59.5,58.1,30.04,South,172,3.0,5.0,95,0.01,,---,0.01,VWS V14.01,2013-10-09 13:58:00,
2013-10-09 09:03:00,60.2,57.9,30.04,South,176,2.0,2.0,92,0.01,,---,0.01,VWS V14.01,2013-10-09 14:03:00,
2013-10-09 09:08:00,60.8,57.8,30.04,SSW,192,2.0,8.0,90,0.01,,---,0.01,VWS V14.01,2013-10-09 14:08:00,
2013-10-09 09:13:00,61.1,57.8,30.04,NE,44,0.0,8.0,89,0.01,,---,0.01,VWS V14.01,2013-10-09 14:13:00,
2013-10-09 09:18:00,61.4,57.8,30.04,SSE,165,4.0,8.0,88,0.01,,---,0.01,VWS V14.01,2013-10-09 14:18:00,
2013-10-09 09:23:00,62.1,58.2,30.04,SSE,163,4.0,8.0,87,0.01,,---,0.01,VWS V14.01,2013-10-09 14:23:00,
2013-10-09 09:28:00,62.6,58.0,30.04,SSE,167,2.0,8.0,85,0.01,,---,0.01,VWS V14.01,2013-10-09 14:28:00,
2013-10-09 09:33:00,63.0,58.4,30.04,South,174,0.0,0.0,85,0.00,,---,0.01,VWS V14.01,2013-10-09 14:33:00,
2013-10-09 09:38:00,63.4,58.5,30.04,SSE,147,2.0,9.0,84,0.00,,---,0.01,VWS V14.01,2013-10-09 14:38:00,
2013-10-09 09:43:00,63.7,58.5,30.04,SSW,211,0.0,9.0,83,0.00,,---,0.01,VWS V14.01,2013-10-09 14:43:00,
2013-10-09 09:48:00,64.2,58.9,30.04,SE,138,0.0,9.0,83,0.00,,---,0.01,VWS V14.01,2013-10-09 14:48:00,
2013-10-09 09:53:00,64.7,59.8,30.04,South,173,1.0,9.0,84,0.00,,---,0.01,VWS V14.01,2013-10-09 14:53:00,
2013-10-09 09:58:00,65.2,59.9,30.04,South,186,0.0,9.0,83,0.00,,---,0.01,VWS V14.01,2013-10-09 14:58:00,
2013-10-09 10:03:00,65.4,59.4,30.04,South,188,2.0,3.0,81,0.00,,---,0.01,VWS V14.01,2013-10-09 15:03:00,
2013-10-09 10:08:00,65.8,60.2,30.04,East,96,0.0,5.0,82,0.00,,---,0.01,VWS V14.01,2013-10-09 15:08:00,
2013-10-09 10:13:00,66.4,60.4,30.04,SSE,165,3.0,9.0,81,0.00,,---,0.01,VWS V14.01,2013-10-09 15:13:00,
2013-10-09 10:18:00,66.7,60.3,30.04,South,189,1.0,9.0,80,0.00,,---,0.01,VWS V14.01,2013-10-09 15:18:00,
2013-10-09 10:23:00,67.2,60.8,30.04,SSE,165,0.0,9.0,80,0.00,,---,0.01,VWS V14.01,2013-10-09 15:23:00,
2013-10-09 10:28:00,67.8,61.4,30.04,NNW,340,0.0,9.0,80,0.00,,---,0.01,VWS V14.01,2013-10-09 15:28:00,
2013-10-09 10:33:00,68.4,61.6,30.04,NNW,336,0.0,0.0,79,0.00,,---,0.01,VWS V14.01,2013-10-09 15:33:00,
2013-10-09 10:38:00,69.2,62.1,30.04,South,170,0.0,4.0,78,0.00,,---,0.01,VWS V14.01,2013-10-09 15:38:00,
2013-10-09 10:43:00,69.7,61.8,30.04,South,184,2.0,6.0,76,0.00,,---,0.01,VWS V14.01,2013-10-09 15:43:00,
2013-10-09 10:48:00,70.1,62.2,30.04,South,175,0.0,6.0,76,0.00,,---,0.01,VWS V14.01,2013-10-09 15:48:00,
2013-10-09 10:53:00,70.8,62.9,30.04,South,180,0.0,6.0,76,0.00,,---,0.01,VWS V14.01,2013-10-09 15:53:00,
2013-10-09 10:58:00,71.5,62.8,30.04,South,174,0.0,6.0,74,0.00,,---,0.01,VWS V14.01,2013-10-09 15:58:00,
2013-10-09 11:03:00,71.5,62.8,30.04,NW,314,0.0,0.0,74,0.00,,---,0.01,VWS V14.01,2013-10-09 16:03:00,
2013-10-09 11:08:00,71.8,63.5,30.04,SSE,163,0.0,4.0,75,0.00,,---,0.01,VWS V14.01,2013-10-09 16:08:00,
2013-10-09 11:13:00,72.3,63.2,30.04,South,185,0.0,4.0,73,0.00,,---,0.01,VWS V14.01,2013-10-09 16:13:00,
2013-10-09 11:18:00,72.6,63.5,30.03,WNW,287,0.0,4.0,73,0.00,,---,0.01,VWS V14.01,2013-10-09 16:18:00,
2013-10-09 11:23:00,72.7,64.3,30.03,WNW,287,0.0,4.0,75,0.00,,---,0.01,VWS V14.01,2013-10-09 16:23:00,
2013-10-09 11:28:00,73.1,63.5,30.03,WNW,295,0.0,5.0,72,0.00,,---,0.01,VWS V14.01,2013-10-09 16:28:00,
2013-10-09 11:33:00,73.3,64.1,30.03,West,279,0.0,0.0,73,0.00,,---,0.01,VWS V14.01,2013-10-09 16:33:00,
2013-10-09 11:38:00,73.8,64.6,30.03,SSE,167,1.0,3.0,73,0.00,,---,0.01,VWS V14.01,2013-10-09 16:38:00,
2013-10-09 11:43:00,74.1,64.1,30.03,WNW,295,0.0,5.0,71,0.00,,---,0.01,VWS V14.01,2013-10-09 16:43:00,
2013-10-09 11:48:00,74.1,64.5,30.03,WSW,252,0.0,5.0,72,0.00,,---,0.01,VWS V14.01,2013-10-09 16:48:00,
2013-10-09 11:53:00,74.3,64.7,30.03,WSW,253,0.0,5.0,72,0.00,,---,0.01,VWS V14.01,2013-10-09 16:53:00,
2013-10-09 11:58:00,74.4,64.8,30.03,West,266,2.0,5.0,72,0.00,,---,0.01,VWS V14.01,2013-10-09 16:58:00,
2013-10-09 12:03:00,74.3,64.7,30.03,West,269,0.0,2.0,72,0.00,,---,0.01,VWS V14.01,2013-10-09 17:03:00,
2013-10-09 12:08:00,74.2,65.0,30.03,SE,135,0.0,2.0,73,0.00,,---,0.01,VWS V14.01,2013-10-09 17:08:00,
2013-10-09 12:13:00,74.8,66.0,30.03,South,182,0.0,2.0,74,0.00,,---,0.01,VWS V14.01,2013-10-09 17:13:00,
2013-10-09 12:18:00,75.6,65.1,30.02,WNW,282,0.0,3.0,70,0.00,,---,0.01,VWS V14.01,2013-10-09 17:18:00,
2013-10-09 12:23:00,75.6,65.1,30.02,WSW,257,0.0,3.0,70,0.00,,---,0.01,VWS V14.01,2013-10-09 17:23:00,
2013-10-09 12:28:00,75.7,64.8,30.02,WNW,298,1.0,4.0,69,0.00,,---,0.01,VWS V14.01,2013-10-09 17:28:00,
2013-10-09 12:33:00,75.5,65.0,30.02,WNW,290,0.0,0.0,70,0.00,,---,0.01,VWS V14.01,2013-10-09 17:33:00,
2013-10-09 12:38:00,75.4,64.9,30.02,WNW,290,0.0,1.0,70,0.00,,---,0.01,VWS V14.01,2013-10-09 17:38:00,
2013-10-09 12:43:00,75.2,65.2,30.02,WNW,290,0.0,1.0,71,0.00,,---,0.01,VWS V14.01,2013-10-09 17:43:00,
2013-10-09 12:48:00,75.4,65.3,30.02,WNW,290,1.0,2.0,71,0.00,,---,0.01,VWS V14.01,2013-10-09 17:48:00,
2013-10-09 12:53:00,75.6,65.1,30.02,WNW,288,0.0,3.0,70,0.00,,---,0.01,VWS V14.01,2013-10-09 17:53:00,
2013-10-09 12:58:00,75.9,65.0,30.02,West,281,0.0,3.0,69,0.00,,---,0.01,VWS V14.01,2013-10-09 17:58:00,
2013-10-09 13:03:00,75.8,64.5,30.01,West,269,0.0,0.0,68,0.00,,---,0.01,VWS V14.01,2013-10-09 18:03:00,
2013-10-09 13:08:00,76.1,65.6,30.01,West,270,0.0,1.0,70,0.00,,---,0.01,VWS V14.01,2013-10-09 18:08:00,
2013-10-09 13:13:00,76.3,65.8,30.01,WNW,301,0.0,5.0,70,0.00,,---,0.01,VWS V14.01,2013-10-09 18:13:00,
2013-10-09 13:18:00,76.2,65.7,30.01,NNW,338,0.0,5.0,70,0.00,,---,0.01,VWS V14.01,2013-10-09 18:18:00,
2013-10-09 13:23:00,76.2,65.3,30.01,North,350,0.0,5.0,69,0.00,,---,0.01,VWS V14.01,2013-10-09 18:23:00,
2013-10-09 13:28:00,75.7,64.8,30.01,ENE,67,0.0,5.0,69,0.00,,---,0.01,VWS V14.01,2013-10-09 18:28:00,
2013-10-09 13:33:00,75.6,65.1,30.00,WNW,289,0.0,4.0,70,0.00,,---,0.01,VWS V14.01,2013-10-09 18:33:00,
2013-10-09 13:38:00,75.5,65.4,30.00,WNW,290,0.0,4.0,71,0.00,,---,0.01,VWS V14.01,2013-10-09 18:38:00,
2013-10-09 13:43:00,75.7,65.6,30.00,WNW,288,0.0,4.0,71,0.00,,---,0.01,VWS V14.01,2013-10-09 18:43:00,
2013-10-09 13:48:00,75.5,65.0,30.00,WNW,297,1.0,4.0,70,0.00,,---,0.01,VWS V14.01,2013-10-09 18:48:00,
2013-10-09 13:53:00,75.1,65.1,30.00,WNW,296,0.0,4.0,71,0.00,,---,0.01,VWS V14.01,2013-10-09 18:53:00,
2013-10-09 13:58:00,74.9,64.5,30.00,WNW,298,0.0,4.0,70,0.00,,---,0.01,VWS V14.01,2013-10-09 18:58:00,
2013-10-09 14:03:00,74.9,64.9,29.99,WNW,298,0.0,0.0,71,0.00,,---,0.01,VWS V14.01,2013-10-09 19:03:00,
2013-10-09 14:08:00,75.2,64.8,29.99,WNW,297,0.0,0.0,70,0.00,,---,0.01,VWS V14.01,2013-10-09 19:08:00,
2013-10-09 14:13:00,75.1,64.7,29.99,WNW,296,0.0,0.0,70,0.00,,---,0.01,VWS V14.01,2013-10-09 19:13:00,
2013-10-09 14:18:00,75.4,65.3,29.98,WNW,297,0.0,0.0,71,0.00,,---,0.01,VWS V14.01,2013-10-09 19:18:00,
2013-10-09 14:23:00,75.8,64.9,29.98,WNW,296,0.0,1.0,69,0.00,,---,0.01,VWS V14.01,2013-10-09 19:23:00,
2013-10-09 14:28:00,76.8,65.9,29.98,WNW,298,0.0,1.0,69,0.00,,---,0.01,VWS V14.01,2013-10-09 19:28:00,
2013-10-09 14:33:00,77.8,66.8,29.98,WNW,297,0.0,0.0,69,0.00,,---,0.01,VWS V14.01,2013-10-09 19:33:00,
2013-10-09 14:38:00,77.9,65.2,29.98,WNW,297,0.0,1.0,65,0.00,,---,0.01,VWS V14.01,2013-10-09 19:38:00,
2013-10-09 14:43:00,77.6,65.8,29.98,WNW,296,0.0,1.0,67,0.00,,---,0.01,VWS V14.01,2013-10-09 19:43:00,
2013-10-09 14:48:00,77.8,66.0,29.98,East,86,3.0,3.0,67,0.00,,---,0.01,VWS V14.01,2013-10-09 19:48:00,
2013-10-09 14:53:00,77.6,65.8,29.98,NNE,30,0.0,3.0,67,0.00,,---,0.01,VWS V14.01,2013-10-09 19:53:00,
2013-10-09 14:58:00,78.0,66.6,29.98,East,80,0.0,3.0,68,0.00,,---,0.01,VWS V14.01,2013-10-09 19:58:00,
2013-10-09 15:03:00,77.8,66.0,29.97,NE,47,0.0,1.0,67,0.00,,---,0.01,VWS V14.01,2013-10-09 20:03:00,
2013-10-09 15:08:00,77.1,65.3,29.97,ENE,75,0.0,4.0,67,0.00,,---,0.01,VWS V14.01,2013-10-09 20:08:00,
2013-10-09 15:13:00,76.3,65.0,29.97,NE,43,1.0,4.0,68,0.00,,---,0.01,VWS V14.01,2013-10-09 20:13:00,
2013-10-09 15:18:00,75.7,65.2,29.97,NE,48,1.0,4.0,70,0.00,,---,0.01,VWS V14.01,2013-10-09 20:18:00,
2013-10-09 15:23:00,75.4,64.9,29.97,NE,49,0.0,4.0,70,0.00,,---,0.01,VWS V14.01,2013-10-09 20:23:00,
2013-10-09 15:28:00,75.1,64.7,29.97,ENE,59,0.0,4.0,70,0.00,,---,0.01,VWS V14.01,2013-10-09 20:28:00,
2013-10-09 15:33:00,74.7,64.7,29.97,ENE,71,0.0,0.0,71,0.00,,---,0.01,VWS V14.01,2013-10-09 20:33:00,
2013-10-09 15:38:00,74.4,64.8,29.97,ENE,70,0.0,2.0,72,0.00,,---,0.01,VWS V14.01,2013-10-09 20:38:00,
2013-10-09 15:43:00,74.4,65.6,29.97,ENE,70,0.0,2.0,74,0.00,,---,0.01,VWS V14.01,2013-10-09 20:43:00,
2013-10-09 15:48:00,74.9,65.3,29.97,ENE,71,0.0,2.0,72,0.00,,---,0.01,VWS V14.01,2013-10-09 20:48:00,
2013-10-09 15:53:00,75.2,66.0,29.97,NE,34,0.0,2.0,73,0.00,,---,0.01,VWS V14.01,2013-10-09 20:53:00,
2013-10-09 15:58:00,75.3,66.1,29.97,NE,34,0.0,2.0,73,0.00,,---,0.01,VWS V14.01,2013-10-09 20:58:00,
2013-10-09 16:03:00,75.0,65.4,29.97,ENE,74,1.0,3.0,72,0.00,,---,0.01,VWS V14.01,2013-10-09 21:03:00,
2013-10-09 16:08:00,74.6,65.4,29.97,ENE,72,0.0,3.0,73,0.00,,---,0.01,VWS V14.01,2013-10-09 21:08:00,
2013-10-09 16:13:00,74.2,65.0,29.97,ENE,71,0.0,4.0,73,0.00,,---,0.01,VWS V14.01,2013-10-09 21:13:00,
2013-10-09 16:18:00,74.1,65.3,29.97,NE,56,0.0,4.0,74,0.00,,---,0.01,VWS V14.01,2013-10-09 21:18:00,
2013-10-09 16:23:00,74.3,65.5,29.97,NNE,13,0.0,4.0,74,0.00,,---,0.01,VWS V14.01,2013-10-09 21:23:00,
2013-10-09 16:28:00,74.6,65.4,29.97,NE,56,0.0,4.0,73,0.00,,---,0.01,VWS V14.01,2013-10-09 21:28:00,
2013-10-09 16:33:00,74.7,65.1,29.97,ENE,57,2.0,6.0,72,0.00,,---,0.01,VWS V14.01,2013-10-09 21:33:00,
2013-10-09 16:38:00,74.6,65.0,29.97,NE,43,0.0,6.0,72,0.00,,---,0.01,VWS V14.01,2013-10-09 21:38:00,
2013-10-09 16:43:00,74.3,64.7,29.97,East,88,0.0,6.0,72,0.00,,---,0.01,VWS V14.01,2013-10-09 21:43:00,
2013-10-09 16:48:00,74.4,65.2,29.97,East,86,0.0,6.0,73,0.00,,---,0.01,VWS V14.01,2013-10-09 21:48:00,
2013-10-09 16:53:00,74.4,65.2,29.97,NE,40,0.0,6.0,73,0.00,,---,0.01,VWS V14.01,2013-10-09 21:53:00,
2013-10-09 16:58:00,74.4,64.8,29.97,ENE,63,1.0,6.0,72,0.00,,---,0.01,VWS V14.01,2013-10-09 21:58:00,
2013-10-09 17:03:00,74.4,64.8,29.97,ENE,71,0.0,1.0,72,0.00,,---,0.01,VWS V14.01,2013-10-09 22:03:00,
2013-10-09 17:08:00,74.4,64.4,29.97,ENE,57,0.0,2.0,71,0.00,,---,0.01,VWS V14.01,2013-10-09 22:08:00,
2013-10-09 17:13:00,74.3,65.1,29.97,ENE,57,0.0,2.0,73,0.00,,---,0.01,VWS V14.01,2013-10-09 22:13:00,
2013-10-09 17:18:00,74.3,64.7,29.97,ENE,57,0.0,2.0,72,0.00,,---,0.01,VWS V14.01,2013-10-09 22:18:00,
2013-10-09 17:23:00,74.1,64.5,29.97,East,91,0.0,2.0,72,0.00,,---,0.01,VWS V14.01,2013-10-09 22:23:00,
2013-10-09 17:28:00,73.9,64.7,29.97,East,91,0.0,2.0,73,0.00,,---,0.01,VWS V14.01,2013-10-09 22:28:00,
2013-10-09 17:33:00,73.7,64.5,29.97,East,82,0.0,1.0,73,0.00,,---,0.01,VWS V14.01,2013-10-09 22:33:00,
2013-10-09 17:38:00,73.5,64.3,29.97,East,82,0.0,1.0,73,0.00,,---,0.01,VWS V14.01,2013-10-09 22:38:00,
2013-10-09 17:43:00,73.3,64.5,29.97,East,82,0.0,1.0,74,0.00,,---,0.01,VWS V14.01,2013-10-09 22:43:00,
2013-10-09 17:48:00,73.0,64.2,29.97,East,80,0.0,1.0,74,0.00,,---,0.01,VWS V14.01,2013-10-09 22:48:00,
2013-10-09 17:53:00,72.7,64.3,29.97,ENE,65,0.0,2.0,75,0.00,,---,0.01,VWS V14.01,2013-10-09 22:53:00,
2013-10-09 17:58:00,72.5,64.5,29.97,ENE,65,0.0,2.0,76,0.00,,---,0.01,VWS V14.01,2013-10-09 22:58:00,
2013-10-09 18:03:00,72.3,64.7,29.97,ENE,65,0.0,0.0,77,0.00,,---,0.01,VWS V14.01,2013-10-09 23:03:00,
2013-10-09 18:08:00,72.1,64.5,29.97,ENE,65,0.0,0.0,77,0.00,,---,0.01,VWS V14.01,2013-10-09 23:08:00,
2013-10-09 18:13:00,71.8,64.6,29.97,ENE,65,0.0,0.0,78,0.00,,---,0.01,VWS V14.01,2013-10-09 23:13:00,
2013-10-09 18:18:00,71.7,64.5,29.97,ENE,65,0.0,0.0,78,0.00,,---,0.01,VWS V14.01,2013-10-09 23:18:00,
2013-10-09 18:23:00,71.5,64.7,29.97,ENE,65,0.0,0.0,79,0.00,,---,0.01,VWS V14.01,2013-10-09 23:23:00,
2013-10-09 18:28:00,71.3,64.5,29.97,ENE,65,0.0,0.0,79,0.00,,---,0.01,VWS V14.01,2013-10-09 23:28:00,
2013-10-09 18:33:00,71.1,64.6,29.97,ENE,65,0.0,0.0,80,0.00,,---,0.01,VWS V14.01,2013-10-09 23:33:00,
2013-10-09 18:38:00,70.8,64.7,29.97,ENE,65,0.0,0.0,81,0.00,,---,0.01,VWS V14.01,2013-10-09 23:38:00,
2013-10-09 18:43:00,70.3,64.6,29.97,ENE,65,0.0,0.0,82,0.00,,---,0.01,VWS V14.01,2013-10-09 23:43:00,
2013-10-09 18:48:00,69.7,64.3,29.97,ENE,65,0.0,0.0,83,0.00,,---,0.01,VWS V14.01,2013-10-09 23:48:00,
2013-10-09 18:53:00,69.3,63.9,29.97,ENE,65,0.0,0.0,83,0.00,,---,0.01,VWS V14.01,2013-10-09 23:53:00,
2013-10-09 18:58:00,68.9,63.9,29.97,ENE,65,0.0,0.0,84,0.00,,---,0.01,VWS V14.01,2013-10-09 23:58:00,
2013-10-09 19:03:00,68.5,63.8,29.97,ENE,65,0.0,0.0,85,0.00,,---,0.01,VWS V14.01,2013-10-10 00:03:00,
2013-10-09 19:08:00,68.3,63.6,29.97,ENE,65,0.0,0.0,85,0.00,,---,0.01,VWS V14.01,2013-10-10 00:08:00,
2013-10-09 19:13:00,68.0,63.7,29.97,ENE,65,0.0,0.0,86,0.00,,---,0.01,VWS V14.01,2013-10-10 00:13:00,
2013-10-09 19:18:00,67.7,63.4,29.97,ENE,65,0.0,0.0,86,0.00,,---,0.01,VWS V14.01,2013-10-10 00:18:00,
2013-10-09 19:23:00,67.3,63.3,29.97,ENE,65,0.0,0.0,87,0.00,,---,0.01,VWS V14.01,2013-10-10 00:23:00,
2013-10-09 19:28:00,67.0,63.0,29.97,ENE,65,0.0,0.0,87,0.00,,---,0.01,VWS V14.01,2013-10-10 00:28:00,
2013-10-09 19:33:00,66.7,63.0,29.97,ENE,65,0.0,0.0,88,0.00,,---,0.01,VWS V14.01,2013-10-10 00:33:00,
2013-10-09 19:38:00,66.5,62.8,29.97,ENE,65,0.0,0.0,88,0.00,,---,0.01,VWS V14.01,2013-10-10 00:38:00,
2013-10-09 19:43:00,66.3,62.6,29.97,ENE,65,0.0,0.0,88,0.00,,---,0.01,VWS V14.01,2013-10-10 00:43:00,
2013-10-09 19:48:00,66.1,62.8,29.98,ENE,65,0.0,0.0,89,0.00,,---,0.01,VWS V14.01,2013-10-10 00:48:00,
2013-10-09 19:53:00,65.9,62.6,29.98,ENE,65,0.0,0.0,89,0.00,,---,0.01,VWS V14.01,2013-10-10 00:53:00,
2013-10-09 19:58:00,65.6,62.6,29.98,ENE,65,0.0,0.0,90,0.00,,---,0.01,VWS V14.01,2013-10-10 00:58:00,
2013-10-09 20:03:00,65.4,62.4,29.98,ENE,65,0.0,0.0,90,0.00,,---,0.01,VWS V14.01,2013-10-10 01:03:00,
2013-10-09 20:08:00,65.1,62.1,29.98,ENE,65,0.0,0.0,90,0.00,,---,0.01,VWS V14.01,2013-10-10 01:08:00,
2013-10-09 20:13:00,64.8,62.1,29.98,ENE,65,0.0,0.0,91,0.00,,---,0.01,VWS V14.01,2013-10-10 01:13:00,
2013-10-09 20:18:00,64.6,61.9,29.98,ENE,65,0.0,0.0,91,0.00,,---,0.01,VWS V14.01,2013-10-10 01:18:00,
2013-10-09 20:23:00,64.4,61.7,29.98,ENE,65,0.0,0.0,91,0.00,,---,0.01,VWS V14.01,2013-10-10 01:23:00,
2013-10-09 20:28:00,64.3,61.9,29.98,ENE,65,0.0,0.0,92,0.00,,---,0.01,VWS V14.01,2013-10-10 01:28:00,
2013-10-09 20:33:00,64.1,61.7,29.98,ENE,65,0.0,0.0,92,0.00,,---,0.01,VWS V14.01,2013-10-10 01:33:00,
2013-10-09 20:38:00,63.9,61.5,29.98,ENE,65,0.0,0.0,92,0.00,,---,0.01,VWS V14.01,2013-10-10 01:38:00,
2013-10-09 20:43:00,63.8,61.4,29.98,ENE,65,0.0,0.0,92,0.00,,---,0.01,VWS V14.01,2013-10-10 01:43:00,
2013-10-09 20:48:00,63.6,61.2,29.98,ENE,65,0.0,0.0,92,0.00,,---,0.01,VWS V14.01,2013-10-10 01:48:00,
2013-10-09 20:53:00,63.3,60.9,29.98,ENE,65,0.0,0.0,92,0.00,,---,0.01,VWS V14.01,2013-10-10 01:53:00,
2013-10-09 20:58:00,63.2,61.2,29.98,ENE,65,0.0,0.0,93,0.00,,---,0.01,VWS V14.01,2013-10-10 01:58:00,
2013-10-09 21:03:00,63.1,61.0,29.98,ENE,65,0.0,0.0,93,0.00,,---,0.01,VWS V14.01,2013-10-10 02:03:00,
2013-10-09 21:08:00,63.0,61.0,29.98,ENE,65,0.0,0.0,93,0.00,,---,0.01,VWS V14.01,2013-10-10 02:08:00,
2013-10-09 21:13:00,62.8,60.8,29.98,ENE,65,0.0,0.0,93,0.00,,---,0.01,VWS V14.01,2013-10-10 02:13:00,
2013-10-09 21:18:00,62.7,60.7,29.98,ENE,65,0.0,0.0,93,0.00,,---,0.01,VWS V14.01,2013-10-10 02:18:00,
2013-10-09 21:23:00,62.6,60.5,29.98,ENE,65,0.0,0.0,93,0.00,,---,0.01,VWS V14.01,2013-10-10 02:23:00,
2013-10-09 21:28:00,62.5,60.5,29.98,ENE,65,0.0,0.0,93,0.00,,---,0.01,VWS V14.01,2013-10-10 02:28:00,
2013-10-09 21:33:00,62.4,60.3,29.98,ENE,65,0.0,0.0,93,0.00,,---,0.01,VWS V14.01,2013-10-10 02:33:00,
2013-10-09 21:38:00,62.3,60.2,29.98,ENE,65,0.0,0.0,93,0.00,,---,0.01,VWS V14.01,2013-10-10 02:38:00,
2013-10-09 21:43:00,62.2,60.5,29.98,ENE,65,0.0,0.0,94,0.00,,---,0.01,VWS V14.01,2013-10-10 02:43:00,
2013-10-09 21:48:00,62.1,60.4,29.99,ENE,65,0.0,0.0,94,0.00,,---,0.01,VWS V14.01,2013-10-10 02:48:00,
2013-10-09 21:53:00,62.1,60.4,29.99,ENE,65,0.0,0.0,94,0.00,,---,0.01,VWS V14.01,2013-10-10 02:53:00,
2013-10-09 21:58:00,62.1,60.4,29.99,ENE,65,0.0,0.0,94,0.00,,---,0.01,VWS V14.01,2013-10-10 02:58:00,
2013-10-09 22:03:00,62.1,60.4,29.99,ENE,65,0.0,0.0,94,0.00,,---,0.01,VWS V14.01,2013-10-10 03:03:00,
2013-10-09 22:08:00,62.1,60.4,29.99,ENE,65,0.0,0.0,94,0.00,,---,0.01,VWS V14.01,2013-10-10 03:08:00,
2013-10-09 22:13:00,62.0,60.3,29.99,ENE,65,0.0,0.0,94,0.00,,---,0.01,VWS V14.01,2013-10-10 03:13:00,
2013-10-09 22:18:00,62.2,60.5,29.98,ENE,65,0.0,0.0,94,0.00,,---,0.01,VWS V14.01,2013-10-10 03:18:00,
2013-10-09 22:23:00,62.2,60.5,29.98,ENE,65,0.0,0.0,94,0.00,,---,0.01,VWS V14.01,2013-10-10 03:23:00,
2013-10-09 22:28:00,62.1,60.4,29.98,ENE,65,0.0,0.0,94,0.00,,---,0.01,VWS V14.01,2013-10-10 03:28:00,
2013-10-09 22:33:00,62.0,60.3,29.98,ENE,65,0.0,0.0,94,0.00,,---,0.01,VWS V14.01,2013-10-10 03:33:00,
2013-10-09 22:38:00,61.9,60.2,29.98,ENE,65,0.0,0.0,94,0.00,,---,0.01,VWS V14.01,2013-10-10 03:38:00,
2013-10-09 22:43:00,61.9,60.2,29.98,ENE,65,0.0,0.0,94,0.00,,---,0.01,VWS V14.01,2013-10-10 03:43:00,
2013-10-09 22:48:00,61.9,60.2,29.98,ENE,65,0.0,0.0,94,0.00,,---,0.01,VWS V14.01,2013-10-10 03:48:00,
2013-10-09 22:53:00,61.8,60.1,29.98,ENE,65,0.0,0.0,94,0.00,,---,0.01,VWS V14.01,2013-10-10 03:53:00,
2013-10-09 22:58:00,61.7,60.3,29.98,ENE,65,0.0,0.0,95,0.00,,---,0.01,VWS V14.01,2013-10-10 03:58:00,
2013-10-09 23:01:00,61.6,60.2,29.98,ENE,65,0.0,0.0,95,0.00,,---,0.01,VWS V14.01,2013-10-10 04:01:00,
2013-10-09 23:02:00,61.6,60.2,29.98,ENE,65,0.0,0.0,95,0.00,,---,0.01,VWS V14.01,2013-10-10 04:02:00,
2013-10-09 23:07:00,61.5,60.1,29.98,ENE,65,0.0,0.0,95,0.00,,---,0.01,VWS V14.01,2013-10-10 04:07:00,
2013-10-09 23:12:00,61.6,60.2,29.98,ENE,65,0.0,0.0,95,0.00,,---,0.01,VWS V14.01,2013-10-10 04:12:00,
2013-10-09 23:17:00,61.7,60.3,29.98,ENE,65,0.0,0.0,95,0.00,,---,0.01,VWS V14.01,2013-10-10 04:17:00,
2013-10-09 23:22:00,61.8,60.4,29.98,ENE,65,0.0,0.0,95,0.00,,---,0.01,VWS V14.01,2013-10-10 04:22:00,
2013-10-09 23:27:00,61.9,60.5,29.98,ENE,65,0.0,0.0,95,0.00,,---,0.01,VWS V14.01,2013-10-10 04:27:00,
2013-10-09 23:32:00,61.9,60.5,29.98,ENE,65,0.0,0.0,95,0.00,,---,0.01,VWS V14.01,2013-10-10 04:32:00,
2013-10-09 23:37:00,61.8,60.4,29.98,ENE,65,0.0,0.0,95,0.00,,---,0.01,VWS V14.01,2013-10-10 04:37:00,
2013-10-09 23:42:00,61.8,60.4,29.98,ENE,65,0.0,0.0,95,0.00,,---,0.01,VWS V14.01,2013-10-10 04:42:00,
2013-10-09 23:47:00,62.0,60.6,29.98,ENE,65,0.0,0.0,95,0.00,,---,0.01,VWS V14.01,2013-10-10 04:47:00,
2013-10-09 23:52:00,62.2,60.8,29.98,ENE,65,0.0,0.0,95,0.00,,---,0.01,VWS V14.01,2013-10-10 04:52:00,
2013-10-09 23:57:00,62.2,60.8,29.98,ENE,65,0.0,0.0,95,0.00,,---,0.01,VWS V14.01,2013-10-10 04:57:00,